sat.trackr.live / text

‹ back to catalog

STARLINK-4725

NORAD 53700 · 2022-107A

PAYLOAD ACTIVE UNKNOWN

§ Identity

Operator
Country
US
Launch date
2022-09-05
Launch site
AFETR
Launch vehicle
Mass (kg)
RCS (m²)

Purposes: comms

External: N2YO · Heavens-Above · Gunter

§ Orbital elements

Epoch: 2026-09-20T03:16:48.037440Z

Period
93.79 min
Inclination
53.1626°
Eccentricity
0.0000996
Mean motion
15.35407480 rev/d
Perigee alt
459.0 km
Apogee alt
460.4 km
Semi-major
6,837.8 km
B*
6.9981e-5
RAAN
87.4117°
Arg perigee
63.1602°
Mean anomaly
296.9503°
Rev number
22,425

§ Raw data

STARLINK-47251 53700U 22107A   26263.13666710  .00002062  00000+0  69981-4 0  99922 53700  53.1626  87.4117 0000996  63.1602 296.9503 15.35407480224256

JSON: /api/v1/satellites/53700 · /tle

For live sub-satellite position, see the globe view (requires WebGL).

§ Visibility from observer

Set your observer location to see the next 7 days of passes ≥ 10°. The values pass through the URL so the page stays shareable.

No JS? Fill the form by hand. The geolocation button needs JavaScript.